This is the latest recevied weather packets stored in our database for station/object N4QEP-13. If no packets are shown the sender has not sent any weather packets the latest 10 day(s).
| Time | Temp. | Humidity | Pressure | Rain* | Wind** | Luminosity | Snow |
|---|---|---|---|---|---|---|---|
| 1777966258 | 11.67° C | 74% | 1014.4 hPa | 0 mm | - | - | - |
| 1777965355 | 11.67° C | 73% | 1014.7 hPa | 0 mm | - | - | - |
| 1777964453 | 12.22° C | 72% | 1015 hPa | 0 mm | - | - | - |
| 1777963543 | 12.22° C | 72% | 1015.2 hPa | 0 mm | - | - | - |
| 1777962649 | 12.22° C | 72% | 1015.4 hPa | 0 mm | - | - | - |
| 1777961742 | 12.22° C | 73% | 1015.5 hPa | 0 mm | - | - | - |
| 1777960839 | 12.22° C | 73% | 1015.7 hPa | 0 mm | - | - | - |
| 1777959944 | 12.78° C | 73% | 1016 hPa | 0 mm | - | - | - |
| 1777959041 | 12.22° C | 69% | 1016 hPa | 0 mm | - | - | - |
| 1777958140 | 12.22° C | 67% | 1015.7 hPa | 0 mm | - | - | - |
| 1777957231 | 12.78° C | 68% | 1015.7 hPa | 0 mm | - | - | - |
| 1777956359 | 13.33° C | 67% | 1016 hPa | 0 mm | - | - | - |
| 1777955468 | 13.33° C | 67% | 1016.1 hPa | 0 mm | - | - | - |
| 1777954554 | 13.89° C | 67% | 1016 hPa | 0 mm | - | - | - |
| 1777953654 | 13.89° C | 66% | 1016.1 hPa | 0 mm | - | - | - |
| 1777952754 | 13.89° C | 66% | 1016.1 hPa | 0 mm | - | - | - |
| 1777951853 | 13.89° C | 66% | 1016 hPa | 0 mm | - | - | - |
| 1777950953 | 13.89° C | 65% | 1015.9 hPa | 0 mm | - | - | - |
| 1777950051 | 14.44° C | 64% | 1015.8 hPa | 0 mm | - | - | - |
| 1777949153 | 15° C | 64% | 1015.8 hPa | 0 mm | - | - | - |
| 1777948252 | 14.44° C | 64% | 1015.9 hPa | 0 mm | - | - | - |
| 1777947348 | 15° C | 62% | 1015.8 hPa | 0 mm | - | - | - |
| 1777946448 | 15.56° C | 61% | 1015.8 hPa | 0 mm | - | - | - |
| 1777945550 | 16.11° C | 59% | 1016 hPa | 0 mm | - | - | - |
| 1777944642 | 16.67° C | 58% | 1016.3 hPa | 0 mm | - | - | - |
* Rain latest hour (hover to see other rain measurements)
** Current wind speed in m/s (hover to see current wind gust speed)